Погода в Воднике

Узбекистан     42°26′10″N   59°32′10″E
темп.,
°C
ветер,
м/с
пор.,
м/с
влажн.,
%
обл.,
%
осадки,
мм/ч
давл.,
гПа
погр.,
м
27 февраля, сб
сб2723:00−2ююз91447100 0.4 1026667
02:00−2ююз81658100 0.1 1023752
05:000юз8154896 0.1 1022502
08:000зсз4797100 0.8 1021306
11:00+1з356586 0.9 1023464
14:00+7зюз68540 0.0 10231081
17:00+6юз687438 0.0 1022711
20:00+6ююз61074100 0.0 1022540
28 февраля, вс
вс2823:00+6ююз6117599 0.0 1022473
02:00+5ююз71164100 0.1 1021399
05:00+3ююз595988 0.1 1020222
08:00+1ю465323 0.0 1020142
11:00+8ю572527 0.0 1020427
14:00+12ю67200 0.0 1017985
17:00+12ю56150 0.0 10161100
20:00+8ю34250 0.0 101657
1 марта, пн
пн123:00+6ююв34310 0.0 101654
02:00+5ююв454017 0.0 101664
05:00+3ю345146 0.0 101531
08:00+2ю235765 0.0 101622
11:00+9ююз013577 0.0 1017325
14:00+13зсз122231 0.0 10171039
17:00+14сз331915 0.0 10171531
20:00+7с710750 0.0 1019399
2 марта, вт
вт223:00+4ссв58840 0.0 1021357
02:00+3с47865 0.0 1022237
05:00+3с468014 0.0 1023293
08:00+3ссз2375100 0.0 1025388
11:00+3с4583100 0.1 1026317
14:00+6сз3358100 0.0 10261011
17:00+7сз234898 0.0 10251269
20:00+5ссз235269 0.0 102556
3 марта, ср
ср323:00+3ссв345847 0.0 102565
02:00+2св226894 0.0 102431
05:00+2вюв238297 0.0 102324
08:00+1юв348576 0.0 102263
11:00+7ю455851 0.0 1022754
14:00+10ю454443 0.0 10201484
17:00+10ююз344372 0.0 10181506
20:00+8ю3557100 0.0 1017134